Hourly Data Report for September 12, 2017

All times are specified in Local Standard Time (LST). Add 1 hour to adjust for Daylight Saving Time where and when it is observed.

ST. JOHN'S INTL A
NEWFOUNDLAND

47°37'07.000" N
52°45'09.000" W
140.50 m
8403505
71801
YYT

Download Data

Hourly Data (September 2017)
Hourly Data Report for September 12, 2017
Temp Definition
°C
Dew Point Temp Definition
°C
Rel Hum Definition
%
Wind Dir Definition
10's deg

Wind Spd Definition
km/h
Visibility Definition
km
Stn Press Definition
kPa
Hmdx Definition


Wind Chill Definition


Weather Definition


TIME
00:30 Legend Double Dagger 11.5 11.5 100 8 37 1.2 98.98     Moderate Rain,Fog
01:30 Legend Double Dagger 11.5 11.5 100 8 28 0.6 98.93     Drizzle,Fog
02:30 Legend Double Dagger 11.7 11.7 100 7 26 0.8 98.89     Rain,Fog
03:30 Legend Double Dagger 11.7 11.7 100 8 23 1.2 98.85     Moderate Rain,Fog
04:30 Legend Double Dagger 11.9 11.9 100 7 20 1.6 98.84     Rain,Fog
05:30 Legend Double Dagger 12.0 12.0 100 8 15 1.2 98.84     Drizzle,Fog
06:30 Legend Double Dagger 12.2 12.2 100 7 10 0.8 98.81     Drizzle,Fog
07:30 Legend Double Dagger 12.4 12.4 100 4 10 0.4 98.83     Drizzle,Fog
08:30 Legend Double Dagger 12.7 12.7 100 3 14 0.2 98.80     Drizzle,Fog
09:30 Legend Double Dagger 12.8 12.8 100 3 10 0.4 98.80     Drizzle,Fog
10:30 Legend Double Dagger 13.3 13.3 100 3 13 0.2 98.75     Fog
11:30 Legend Double Dagger 13.2 13.2 100 5 10 0.4 98.73     Fog
12:30 Legend Double Dagger 14.1 14.0 100 36 4 4.8 98.66     Fog
13:30 Legend Double Dagger 15.6 14.6 94 28 14 16.1 98.57     LegendNANA
14:30 Legend Double Dagger 15.0 13.8 93 29 14 19.3 98.53     Cloudy
15:30 Legend Double Dagger 14.3 13.6 96 29 14 12.9 98.52     LegendNANA
16:30 Legend Double Dagger 13.6 13.0 96 27 12 2.4 98.48     Fog
17:30 Legend Double Dagger 13.0 12.1 94 28 14 24.1 98.43     Mainly Clear
18:30 Legend Double Dagger 13.5 13.1 97 30 7 12.9 98.40     LegendNANA
19:30 Legend Double Dagger 13.0 12.9 99 36 2 2.0 98.45     Fog
20:30 Legend Double Dagger 12.6 12.4 99 32 5 1.2 98.40     Drizzle,Fog
21:30 Legend Double Dagger 12.3 12.2 99 31 5 3.2 98.40     Drizzle,Fog
22:30 Legend Double Dagger 12.0 11.9 100 31 6 0.8 98.37     Drizzle,Fog
23:30 Legend Double Dagger 11.8 11.7 100 29 7 0.8 98.29     Drizzle,Fog

Notes on Data Quality.

Legend

  • E = Estimated
  • M = Missing
  • NA = Not Available
  • ‡ = Partner data that is not subject to review by the National Climate Archives
Date modified: